This demonstration page uses our WeatherBlox Daily Observations layout. Learn more.

Left ArrowRight Arrow

Hourly Observations for January 11, 2017

Temp ( °F °C ) Dew Point ( °F °C ) Humidity (%) Winds ( mph kmh ) Pressure ( in mb ) Visibility ( mi km ) Precip ( " mm )
12:53 am 00:53 Clear 36 2.2 25 -3.9 64 64 S 10 17 29.71 1006 10 16 0.00 0.00
1:53 am 01:53 Clear 39 3.9 23 -5 53 53 SSW 13 20 29.68 1005 10 16 0.00 0.00
2:53 am 02:53 Clear 42 5.6 22 -5.6 45 45 SSW 14 22 29.65 1004 10 16 0.00 0.00
3:53 am 03:53 Clear 37 2.8 21 -6.1 52 52 S 7 11 29.62 1003 10 16 0.00 0.00
4:53 am 04:53 Clear 37 2.8 21 -6.1 52 52 S 6 9 29.60 1002 10 16 0.00 0.00
5:53 am 05:53 Mostly Cloudy 37 2.8 22 -5.6 54 54 S 7 11 29.57 1001 10 16 0.00 0.00
6:53 am 06:53 Clear 38 3.3 23 -5 55 55 S 7 11 29.57 1001 10 16 0.00 0.00
7:53 am 07:53 Clear 20 -6.7 14 -10 78 78 N 25 41 29.70 1006 10 16 0.00 0.00
8:49 am 08:49 Mostly Cloudy 16 -9 9 -13 73 73 N 21 33 29.85 1011 10 16 0.00 0.00
8:53 am 08:53 Mostly Cloudy 15 -9.4 9 -12.8 77 77 N 24 39 29.75 1007 9 14 0.00 0.00
9:44 am 09:44 Partly Cloudy 16 -9 9 -13 73 73 N 29 46 29.85 1011 10 16 0.00 0.00
9:53 am 09:53 Mostly Sunny 16 -8.9 7 -13.9 67 67 NNE 29 46 29.77 1008 10 16 0.00 0.03
10:53 am 10:53 Sunny 19 -7.2 8 -13.3 62 62 N 25 41 29.81 1009 10 16 0.00 0.00
11:53 am 11:53 Sunny 19 -7.2 7 -13.9 59 59 N 25 41 29.83 1010 10 16 0.00 0.00
12:53 pm 12:53 Sunny 20 -6.7 7 -13.9 57 57 N 22 35 29.82 1010 10 16 0.00 0.00
1:53 pm 13:53 Sunny 21 -6.1 7 -13.9 54 54 N 20 31 29.82 1010 10 16 0.00 0.00
2:53 pm 14:53 Sunny 20 -6.7 6 -14.4 55 55 NNE 20 31 29.82 1010 10 16 0.00 0.00
3:53 pm 15:53 Sunny 21 -6.1 6 -14.4 52 52 N 20 31 29.86 1011 10 16 0.00 0.00
4:53 pm 16:53 Sunny 18 -7.8 5 -15 57 57 NNE 18 30 29.86 1011 10 16 0.00 0.00
5:53 pm 17:53 Clear 16 -8.9 4 -15.6 59 59 N 9 15 29.95 1014 10 16 0.00 0.00
6:53 pm 18:53 Partly Cloudy 16 -8.9 4 -15.6 59 59 NNE 16 26 29.94 1014 10 16 0.00 0.00
7:53 pm 19:53 Cloudy 16 -8.9 4 -15.6 59 59 NNE 22 35 29.95 1014 10 16 0.00 0.00
8:53 pm 20:53 Cloudy 15 -9.4 3 -16.1 59 59 NNE 15 24 29.99 1016 10 16 0.00 0.00
9:53 pm 21:53 Clear 14 -10 3 -16.1 61 61 N 10 17 30.04 1017 10 16 0.00 0.00
10:53 pm 22:53 Mostly Clear 13 -10.6 4 -15.6 67 67 N 15 24 30.06 1018 10 16 0.00 0.00
11:53 pm 23:53 Mostly Cloudy 12 -11.1 5 -15 73 73 N 16 26 30.04 1017 10 16 0.00 0.00

Powered by AerisWeather